Weather History for KLNL - January, 2014

Change the Weather History Date:

Thursday, January 30, 2014

  Actual Average (KEGV) Record (KEGV)
Temperature  
Mean Temperature 11 °F -  
Max Temperature 22 °F 19 °F 39 °F (1999)
Min Temperature 0 °F 0 °F -24 °F (1991)
Degree Days  
Heating Degree Days 54    
Moisture  
Dew Point 10 °F    
Average Humidity 80    
Maximum Humidity 93    
Minimum Humidity 59    
Precipitation  
Precipitation 0.00 in - - ()
Sea Level Pressure  
Sea Level Pressure 29.55 in    
Wind  
Wind Speed 7 mph (WNW)    
Max Wind Speed 13 mph    
Max Gust Speed 20 mph    
Visibility 6 miles    
Events Snow    
Averages and records for this station are not official NWS values.
T = Trace of Precipitation, MM = Missing Value Source: NWS Daily Summary

Daily Weather History Graph

Daily Weather History Graph

Search for Another Location

Airport or City:

Trip Planner

Search our weather history database for the weather conditions in past years. The results will help you decide how hot, cold, wet, or windy it might be!

Date:

Astronomy

Jan. 30, 2014 Rise Set
Actual Time 7:21 AM CST 4:59 PM CST
Civil Twilight 6:49 AM CST 5:31 PM CST
Nautical Twilight 6:13 AM CST 6:07 PM CST
Astronomical Twilight 5:38 AM CST 6:42 PM CST
Moon 6:45 AM CST 5:14 PM CST
Length of Visible Light 10h 41m
Length of Day
9h 37m
Waning Crescent, 0% of the Moon is Illuminated
Jan 30
Waning Crescent
Jan 30
New
Feb 6
First Quarter
Feb 14
Full
Feb 22
Last Quarter

Hourly Weather History & Observations

Time (CST) Temp. Windchill Dew Point Humidity Pressure Visibility Wind Dir Wind Speed Gust Speed Precip Events Conditions
12:15 AM 20.8 °F 9.7 °F 8.4 °F 59% 29.51 in 10.0 mi SSW 10.4 mph 16.1 mph N/A   Clear
12:35 AM 21.0 °F 10.6 °F 8.8 °F 59% 29.51 in 10.0 mi SSW 9.2 mph - N/A   Clear
12:55 AM 21.2 °F 10.9 °F 9.3 °F 60% 29.50 in 10.0 mi SSW 9.2 mph - N/A   Clear
1:15 AM 21.2 °F 9.5 °F 9.5 °F 61% 29.49 in 10.0 mi SSW 11.5 mph 18.4 mph N/A   Scattered Clouds
1:35 AM 21.2 °F 8.9 °F 9.5 °F 61% 29.49 in 10.0 mi SSW 12.7 mph 19.6 mph N/A   Scattered Clouds
1:55 AM 21.0 °F 10.6 °F 9.9 °F 62% 29.50 in 10.0 mi SW 9.2 mph 17.3 mph N/A   Scattered Clouds
2:15 AM 20.8 °F 14.4 °F 10.0 °F 63% 29.50 in 10.0 mi SSW 4.6 mph - N/A   Scattered Clouds
2:35 AM 21.0 °F 14.6 °F 10.4 °F 64% 29.50 in 10.0 mi SW 4.6 mph - N/A   Scattered Clouds
2:55 AM 21.2 °F 11.7 °F 10.8 °F 64% 29.50 in 10.0 mi SW 8.1 mph - N/A   Mostly Cloudy
3:15 AM 21.2 °F 11.7 °F 10.9 °F 65% 29.50 in 10.0 mi SW 8.1 mph - N/A   Overcast
3:35 AM 21.6 °F 14.0 °F 11.3 °F 65% 29.50 in 10.0 mi SW 5.8 mph - N/A   Overcast
3:55 AM 21.9 °F 15.7 °F 11.7 °F 65% 29.49 in 10.0 mi SW 4.6 mph - N/A   Overcast
4:15 AM 22.1 °F 15.9 °F 12.0 °F 65% 29.49 in 10.0 mi SW 4.6 mph - N/A   Overcast
4:35 AM 22.1 °F 13.7 °F 13.1 °F 68% 29.49 in 10.0 mi SW 6.9 mph - N/A   Overcast
4:55 AM 22.1 °F 14.7 °F 14.0 °F 71% 29.49 in 10.0 mi SW 5.8 mph - N/A   Overcast
5:15 AM 21.7 °F 14.3 °F 15.6 °F 77% 29.49 in 4.0 mi SW 5.8 mph - N/A Snow Light Snow
5:35 AM 21.2 °F 16.4 °F 17.2 °F 85% 29.50 in 2.0 mi WSW 3.5 mph - N/A Snow Light Snow
5:55 AM 21.2 °F - 18.3 °F 89% 29.50 in 1.8 mi Calm Calm - N/A Snow Light Snow
6:15 AM 21.2 °F - 18.5 °F 89% 29.49 in 2.0 mi Calm Calm - N/A Snow Light Snow
6:35 AM 21.2 °F 16.4 °F 18.7 °F 90% 29.49 in 1.8 mi SSW 3.5 mph - N/A Snow Light Snow
6:55 AM 21.0 °F 16.2 °F 18.7 °F 91% 29.50 in 2.5 mi SW 3.5 mph - N/A Snow Light Snow
7:15 AM 21.2 °F - 18.9 °F 91% 29.49 in 1.2 mi Calm Calm - N/A Snow Light Snow
7:35 AM 21.2 °F - 19.0 °F 91% 29.50 in 1.0 mi Calm Calm - N/A Snow Light Snow
7:55 AM 21.2 °F - 19.2 °F 92% 29.51 in 1.0 mi Calm Calm - N/A Snow Light Snow
8:15 AM 21.2 °F - 19.2 °F 92% 29.50 in 1.0 mi Calm Calm - N/A Snow Light Snow
8:35 AM 21.0 °F - 19.2 °F 93% 29.50 in 1.0 mi Calm Calm - N/A Snow Light Snow
8:55 AM 21.2 °F - 19.4 °F 93% 29.50 in 1.2 mi Calm Calm - N/A Snow Light Snow
9:15 AM 21.2 °F - 19.4 °F 93% 29.50 in 1.0 mi Calm Calm - N/A Snow Light Snow
9:35 AM 21.4 °F - 19.4 °F 92% 29.50 in 0.8 mi Calm Calm - N/A Snow Light Snow
9:55 AM 21.6 °F 16.8 °F 19.2 °F 91% 29.50 in 0.8 mi North 3.5 mph - N/A Snow Light Snow
10:15 AM 21.2 °F 16.4 °F 18.5 °F 89% 29.50 in 0.8 mi North 3.5 mph - N/A Snow Light Snow
10:35 AM 20.7 °F 14.2 °F 17.8 °F 89% 29.50 in 1.2 mi North 4.6 mph - N/A Snow Light Snow
10:55 AM 20.7 °F 13.0 °F 17.6 °F 88% 29.50 in 1.0 mi NNE 5.8 mph - N/A Snow Light Snow
11:15 AM 20.7 °F 14.2 °F 18.1 °F 90% 29.49 in 0.8 mi North 4.6 mph - N/A Snow Light Snow
11:35 AM 20.7 °F 14.2 °F 18.1 °F 90% 29.48 in 0.8 mi North 4.6 mph - N/A Snow Light Snow
11:55 AM 19.8 °F 8.3 °F 16.5 °F 87% 29.46 in 1.2 mi North 10.4 mph - N/A Snow Light Snow
12:15 PM 17.6 °F 7.3 °F 14.0 °F 86% 29.47 in 1.0 mi North 8.1 mph 16.1 mph N/A Snow Light Snow
12:35 PM 17.6 °F 7.3 °F 14.2 °F 86% 29.45 in 0.8 mi North 8.1 mph - N/A Snow Light Snow
12:55 PM 17.6 °F 6.4 °F 14.0 °F 86% 29.45 in 1.2 mi North 9.2 mph - N/A Snow Light Snow
1:15 PM 17.2 °F 6.0 °F 13.6 °F 86% 29.46 in 1.0 mi NNW 9.2 mph - N/A Snow Light Snow
1:35 PM 17.2 °F 6.0 °F 13.3 °F 84% 29.46 in 1.2 mi NNW 9.2 mph - N/A Snow Light Snow
1:55 PM 16.7 °F 7.2 °F 12.7 °F 84% 29.46 in 1.2 mi North 6.9 mph - N/A Snow Light Snow
2:15 PM 17.2 °F 8.9 °F 13.5 °F 85% 29.46 in 1.0 mi NNW 5.8 mph - N/A Snow Light Snow
2:35 PM 17.6 °F 7.3 °F 12.7 °F 81% 29.48 in 1.2 mi NNW 8.1 mph - N/A Snow Light Snow
2:55 PM 16.9 °F 5.5 °F 12.9 °F 84% 29.49 in 1.0 mi North 9.2 mph - N/A Snow Light Snow
3:15 PM 16.3 °F 5.7 °F 12.2 °F 84% 29.50 in 1.0 mi NNW 8.1 mph - N/A Snow Light Snow
3:35 PM 15.8 °F 5.1 °F 11.1 °F 82% 29.51 in 1.5 mi North 8.1 mph - N/A Snow Light Snow
3:55 PM 14.7 °F 3.8 °F 10.2 °F 82% 29.53 in 2.0 mi North 8.1 mph - N/A Snow Light Snow
4:15 PM 14.5 °F 1.9 °F 8.8 °F 78% 29.53 in 5.0 mi NNW 10.4 mph 17.3 mph N/A Snow Light Snow
4:35 PM 13.6 °F 0.7 °F 8.2 °F 79% 29.55 in 7.0 mi NW 10.4 mph - N/A Snow Light Snow
4:55 PM 12.6 °F 1.1 °F 7.7 °F 81% 29.57 in 2.0 mi NW 8.1 mph - N/A Snow Light Snow
5:15 PM 12.0 °F 4.1 °F 7.5 °F 82% 29.58 in 2.0 mi WNW 4.6 mph - N/A Snow Light Snow
5:35 PM 10.4 °F -4.1 °F 5.0 °F 79% 29.60 in 10.0 mi NNW 11.5 mph - N/A Snow Light Snow
5:55 PM 10.0 °F -3.7 °F 4.8 °F 79% 29.61 in 7.0 mi NW 10.4 mph 16.1 mph N/A Snow Light Snow
6:15 PM 8.6 °F -2.6 °F 3.7 °F 81% 29.62 in 10.0 mi NW 6.9 mph - N/A   Overcast
6:35 PM 8.2 °F -6.8 °F 3.4 °F 81% 29.63 in 10.0 mi NW 11.5 mph 17.3 mph N/A Snow Light Snow
6:55 PM 8.1 °F -4.3 °F 3.2 °F 81% 29.64 in 10.0 mi NW 8.1 mph - N/A Snow Light Snow
7:15 PM 7.5 °F 0.8 °F 2.8 °F 81% 29.66 in 10.0 mi WNW 3.5 mph - N/A   Mostly Cloudy
7:35 PM 6.8 °F -2.0 °F 2.3 °F 82% 29.67 in 10.0 mi WNW 4.6 mph - N/A   Mostly Cloudy
7:55 PM 6.3 °F -4.1 °F 2.1 °F 83% 29.67 in 10.0 mi WNW 5.8 mph - N/A   Scattered Clouds
8:15 PM 5.9 °F -4.5 °F 1.8 °F 83% 29.68 in 10.0 mi WNW 5.8 mph - N/A   Clear
8:35 PM 5.2 °F -1.9 °F 0.5 °F 81% 29.69 in 10.0 mi WNW 3.5 mph - N/A   Clear
8:55 PM 4.6 °F -6.0 °F -0.0 °F 81% 29.70 in 10.0 mi WNW 5.8 mph - N/A   Clear
9:15 PM 4.1 °F -6.7 °F -0.9 °F 80% 29.71 in 10.0 mi WNW 5.8 mph - N/A   Clear
9:35 PM 4.1 °F -6.7 °F -1.5 °F 78% 29.72 in 10.0 mi WNW 5.8 mph - N/A   Scattered Clouds
9:55 PM 3.2 °F -6.2 °F -2.2 °F 78% 29.73 in 10.0 mi West 4.6 mph - N/A   Scattered Clouds
10:15 PM 2.7 °F -8.4 °F -2.6 °F 79% 29.74 in 10.0 mi WNW 5.8 mph - N/A   Scattered Clouds
10:35 PM 1.8 °F -9.5 °F -3.3 °F 79% 29.75 in 10.0 mi WNW 5.8 mph - N/A Snow Light Snow
10:55 PM 1.4 °F -8.3 °F -3.5 °F 80% 29.76 in 10.0 mi West 4.6 mph - N/A Snow Light Snow
11:15 PM 1.2 °F -8.5 °F -3.8 °F 79% 29.77 in 10.0 mi WNW 4.6 mph - N/A Snow Light Snow
11:35 PM 0.5 °F -12.3 °F -4.4 °F 80% 29.77 in 10.0 mi WNW 6.9 mph - N/A   Clear
11:55 PM 0.1 °F -12.8 °F -4.9 °F 79% 29.78 in 10.0 mi WNW 6.9 mph - N/A   Clear